[[{"header":{"parameterUnit":"m.s-1","parameterCategory":1,"la1":30.2991,"la2":30.254,"lo1":-89.0895,"lo2":-89.0444,"dx":0.0017,"dy":0.0017,"nx":28,"ny":28,"refTime":"2023-01-12T15:00:00:Z","depth":0,"parameterNumber":2,"parameterNumberName":"U-component_of_WINDS"},"data":[0,0,0,0,0,0,0,0,0,0,0,0,0,0,0,0,0,0,0,0,0,0,0,0,0,0,0,0,0,0,0,0,0,0,0,0,0,0,0,0,0,0,0,0,0,0,0,0,0,0,0,0,0,0,0,0,0,0,1.0514,1.0515,0,1.0526,1.0526,1.0526,1.053,1.053,1.053,1.053,1.0541,1.0542,1.0542,0,0,0,0,0,0,0,0,0,0,0,0,0,1.0497,1.0497,1.0514,1.0515,1.0515,1.0526,1.0526,1.0526,1.053,1.053,1.053,1.053,1.0541,1.0542,1.0542,0,0,0,0,0,0,0,0,0,0,0,0,0,1.0506,1.0497,1.0514,1.0518,1.0519,1.0526,1.0526,1.0526,1.053,1.053,1.053,1.053,1.0541,1.0542,1.0542,1.0546,0,0,1.0544,1.0544,0,0,0,0,0,0,0,0,1.0506,1.0507,1.0517,1.0518,1.0518,1.0527,1.0524,1.0533,1.053,1.0526,1.053,1.053,1.0536,1.0537,1.054,1.0547,1.0547,1.0544,1.0544,1.0544,1.0544,0,0,0,0,0,0,0,1.0505,1.0506,1.0519,1.0518,1.0518,1.0519,1.0521,1.0526,1.0531,1.0526,1.0527,1.0528,1.0537,1.0539,1.054,1.0547,1.0544,1.0544,1.0544,1.0545,1.056,1.056,0,0,0,0,0,0,1.0504,1.0506,1.0519,1.0519,1.0512,1.052,1.0521,1.0524,1.0531,1.0532,1.0528,1.0528,1.0538,1.0539,1.054,1.0546,1.0544,1.0545,1.0545,1.056,1.056,1.056,0,0,0,0,0,0,1.0503,1.0505,1.0518,1.0513,1.0514,1.052,1.0523,1.0524,1.0527,1.0533,1.0534,1.0529,1.0538,1.054,1.0545,1.0546,1.0545,1.0545,1.056,1.056,1.056,1.0557,0,0,0,0,0,0,1.0503,1.0505,1.0506,1.0513,1.0515,1.0522,1.0523,1.0525,1.0528,1.0528,1.0534,1.0535,1.0538,1.0544,1.0545,1.0547,1.0546,1.0559,1.056,1.056,1.0557,1.0558,1.0558,0,0,0,0,0,1.0502,1.0504,1.0506,1.0507,1.0517,1.0522,1.0524,1.0527,1.0528,1.0529,1.0533,1.0535,1.0546,1.0545,1.0546,1.0548,1.0559,1.056,1.056,1.0557,1.0557,1.0558,0,0,0,0,0,0,1.0497,1.0505,1.0507,1.0512,1.0516,1.0523,1.0525,1.0527,1.0532,1.0532,1.0537,1.0538,1.0543,1.0546,1.0544,1.0553,1.0553,1.0554,1.0551,1.0551,1.0551,1.055,1.0546,0,0,0,0,0,1.0497,1.0501,1.0508,1.0511,1.0514,1.0519,1.0522,1.0525,1.053,1.0531,1.0536,1.0541,1.0546,1.0548,1.0553,1.0558,1.056,1.056,1.0561,1.0561,1.0561,1.0564,1.0565,1.0561,1.0561,1.0561,0,0,1.0496,1.0501,1.0503,1.0511,1.0514,1.0519,1.0521,1.0525,1.0528,1.0532,1.0538,1.0541,1.0547,1.0552,1.0555,1.0555,1.0563,1.0561,1.0561,1.0561,1.0565,1.0565,1.0565,1.0561,1.0561,1.0561,0,0,1.0496,1.05,1.0504,1.0508,1.0514,1.0518,1.0519,1.0526,1.0529,1.0534,1.0537,1.0542,1.055,1.0554,1.0557,1.0561,1.0563,1.0562,1.0563,1.0566,1.0566,1.0567,1.0568,1.0569,1.0563,1.0563,1.0563,0,1.0494,1.05,1.0505,1.051,1.0513,1.0518,1.0522,1.0526,1.0533,1.0535,1.0536,1.0547,1.0551,1.0558,1.0559,1.0561,1.0563,1.0561,1.0566,1.0566,1.0567,1.0568,1.0569,1.0563,1.0563,1.0563,1.0563,0,1.0498,1.0502,1.0504,1.0512,1.0516,1.052,1.0526,1.0529,1.0532,1.0536,1.0543,1.0548,1.0554,1.0556,1.0559,1.0564,1.0564,1.0565,1.0565,1.0567,1.0568,1.0569,1.0563,1.0563,1.0563,1.0563,0,0,1.0494,1.0505,1.0506,1.051,1.0518,1.0521,1.0526,1.0533,1.0536,1.0541,1.0546,1.0553,1.0555,1.0558,1.0562,1.0565,1.0568,1.0566,1.0566,1.0566,1.0575,1.0573,1.0574,1.057,1.057,1.057,1.0574,0,1.0495,1.0503,1.0509,1.0515,1.052,1.0525,1.053,1.0535,1.054,1.0544,1.0549,1.0555,1.0556,1.0558,1.0562,1.0567,1.057,1.0567,1.0574,1.0574,1.0572,1.0575,1.0573,1.0576,1.0575,1.0575,1.0575,0,1.0497,1.0503,1.051,1.0518,1.0521,1.0524,1.0531,1.0536,1.0543,1.0546,1.0551,1.0555,1.056,1.0561,1.0569,1.0567,1.0571,1.0574,1.0574,1.0574,1.0574,1.0575,1.0578,1.0578,1.0576,1.0576,1.0576,0,1.0493,1.0503,1.0509,1.0512,1.0522,1.0525,1.0529,1.0536,1.054,1.0546,1.0549,1.0556,1.056,1.0565,1.0571,1.057,1.0579,1.0579,1.0582,1.0581,1.0582,1.0582,1.0585,1.0585,1.0585,1.0585,1.0585,0,1.0494,1.0498,1.0507,1.0511,1.0516,1.0523,1.0528,1.0533,1.0539,1.0544,1.0549,1.0553,1.0561,1.0566,1.0571,1.0578,1.0579,1.0582,1.0583,1.0581,1.0581,1.0583,1.0583,1.0586,1.0585,1.0585,1.0585,0,1.049,1.0497,1.0503,1.0513,1.0515,1.0519,1.0527,1.0531,1.0536,1.0542,1.0544,1.0552,1.0559,1.0566,1.0575,1.0578,1.0585,1.0586,1.0582,1.0583,1.0585,1.0584,1.0589,1.059,1.059,1.059,1.059,0,1.0489,1.0493,1.0503,1.0507,1.0511,1.0517,1.0521,1.0528,1.0533,1.0542,1.0545,1.0552,1.0558,1.057,1.0576,1.0584,1.0585,1.0587,1.0586,1.0585,1.0585,1.0585,1.0585,1.0586,1.0586,1.0586,1.0586,0,1.0488,1.0491,1.0497,1.0505,1.051,1.0516,1.0523,1.0526,1.0534,1.0539,1.0546,1.0551,1.0561,1.0569,1.0577,1.0582,1.0586,1.0587,1.0587,1.0585,1.0583,1.0584,1.0582,1.0586,1.0586,1.0586,1.0586,1.0586,1.0485,1.0489,1.0497,1.0504,1.051,1.0516,1.052,1.0527,1.0533,1.0542,1.0546,1.0553,1.0561,1.0573,1.0578,1.0585,1.0585,1.0587,1.0587,1.0587,1.0587,1.0582,1.0586,1.0586,1.0586,1.0586,1.0586,0,1.0484,1.049,1.0496,1.0505,1.0511,1.0515,1.0522,1.0527,1.0533,1.0541,1.0547,1.0556,1.0564,1.0572,1.058,1.0584,1.0586,1.0586,1.0585,1.0587,1.0585,1.0584,1.0584,1.0584,1.0584,1.0584,1.0584,1.0584,1.0484,1.049,1.0495,1.0505,1.0511,1.0518,1.0522,1.0528,1.0534,1.0544,1.0551,1.0556,1.0564,1.0573,1.0581,1.0583,1.0586,1.0585,1.0588,1.0586,1.0587,1.0587,1.0585,1.0586,1.0586,1.0589,1.0589,1.0589]},{"header":{"parameterUnit":"m.s-1","parameterCategory":1,"la1":30.2991,"la2":30.254,"lo1":-89.0895,"lo2":-89.0444,"dx":0.0017,"dy":0.0017,"nx":28,"ny":28,"refTime":"2023-01-12T15:00:00:Z","depth":0,"parameterNumber":3,"parameterNumberName":"V-component_of_WINDS"},"data":[0,0,0,0,0,0,0,0,0,0,0,0,0,0,0,0,0,0,0,0,0,0,0,0,0,0,0,0,0,0,0,0,0,0,0,0,0,0,0,0,0,0,0,0,0,0,0,0,0,0,0,0,0,0,0,0,0,0,-6.2358,-6.2359,0,-6.25,-6.2502,-6.2503,-6.2476,-6.2474,-6.2471,-6.2469,-6.2609,-6.2615,-6.2621,0,0,0,0,0,0,0,0,0,0,0,0,0,-6.2057,-6.2063,-6.2357,-6.2359,-6.2361,-6.25,-6.2502,-6.2504,-6.2477,-6.2474,-6.2471,-6.2468,-6.2607,-6.2614,-6.2622,0,0,0,0,0,0,0,0,0,0,0,0,0,-6.2192,-6.2065,-6.2357,-6.2365,-6.2367,-6.2499,-6.2502,-6.2504,-6.2478,-6.2474,-6.247,-6.2466,-6.2605,-6.2614,-6.2623,-6.2755,0,0,-6.2651,-6.2655,0,0,0,0,0,0,0,0,-6.2185,-6.2203,-6.2362,-6.2364,-6.2367,-6.2467,-6.2447,-6.2588,-6.2479,-6.2435,-6.2469,-6.2465,-6.2565,-6.2577,-6.2612,-6.2762,-6.2768,-6.2652,-6.2657,-6.2661,-6.2664,0,0,0,0,0,0,0,-6.2175,-6.2197,-6.2414,-6.2364,-6.2367,-6.2359,-6.2374,-6.2474,-6.2519,-6.2439,-6.2437,-6.2455,-6.2565,-6.2603,-6.2615,-6.277,-6.2651,-6.2659,-6.2665,-6.2669,-6.3037,-6.3041,0,0,0,0,0,0,-6.2164,-6.219,-6.2409,-6.2418,-6.2265,-6.2368,-6.2384,-6.2438,-6.2518,-6.2527,-6.2458,-6.2453,-6.2589,-6.2604,-6.262,-6.2781,-6.2661,-6.267,-6.2675,-6.3033,-6.3038,-6.3043,0,0,0,0,0,0,-6.2158,-6.2184,-6.2403,-6.2303,-6.2331,-6.2377,-6.2438,-6.2443,-6.2481,-6.2533,-6.254,-6.2488,-6.2587,-6.2607,-6.2723,-6.2786,-6.2674,-6.2682,-6.3028,-6.3035,-6.3041,-6.3105,0,0,0,0,0,0,-6.215,-6.2182,-6.2234,-6.2305,-6.2336,-6.2506,-6.2442,-6.2449,-6.2498,-6.2493,-6.2563,-6.2571,-6.2585,-6.2709,-6.2732,-6.2796,-6.2689,-6.3023,-6.3031,-6.3039,-6.3098,-6.3113,-6.3126,0,0,0,0,0,-6.2139,-6.2245,-6.2237,-6.2264,-6.2402,-6.2509,-6.2527,-6.2543,-6.2503,-6.2555,-6.2588,-6.2569,-6.2775,-6.2721,-6.2746,-6.2815,-6.3019,-6.3029,-6.3038,-6.3091,-6.311,-6.3126,0,0,0,0,0,0,-6.2178,-6.2254,-6.2246,-6.2379,-6.2438,-6.2505,-6.2571,-6.2562,-6.2632,-6.2624,-6.2639,-6.2655,-6.2773,-6.2805,-6.2744,-6.2948,-6.2891,-6.2906,-6.2923,-6.2941,-6.2955,-6.2945,-6.2697,0,0,0,0,0,-6.2203,-6.2285,-6.2346,-6.2457,-6.2487,-6.2524,-6.2571,-6.2578,-6.2639,-6.2664,-6.2705,-6.2764,-6.2842,-6.2893,-6.2968,-6.3102,-6.3117,-6.3161,-6.3175,-6.3187,-6.32,-6.3274,-6.3295,-6.3075,-6.3075,-6.3075,0,0,-6.2253,-6.2305,-6.2355,-6.2466,-6.2513,-6.2597,-6.2545,-6.2635,-6.2697,-6.2677,-6.279,-6.2823,-6.2889,-6.3015,-6.3072,-6.3045,-6.3264,-6.3199,-6.3208,-6.3215,-6.3286,-6.3307,-6.3326,-6.3081,-6.308,-6.3079,0,0,-6.2388,-6.2436,-6.2534,-6.2583,-6.2655,-6.2679,-6.2703,-6.2772,-6.2793,-6.2907,-6.2894,-6.2967,-6.31,-6.3149,-6.3191,-6.3346,-6.3331,-6.3369,-6.3444,-6.3517,-6.3534,-6.3549,-6.3606,-6.3625,-6.3382,-6.3382,-6.3383,0,-6.2442,-6.2569,-6.2585,-6.2678,-6.2727,-6.2715,-6.2814,-6.2859,-6.2952,-6.2985,-6.2954,-6.3123,-6.3166,-6.3304,-6.3343,-6.3377,-6.3404,-6.3362,-6.353,-6.3546,-6.3561,-6.3614,-6.3635,-6.3387,-6.3386,-6.3386,-6.3385,0,-6.2631,-6.272,-6.279,-6.2883,-6.2939,-6.3035,-6.3064,-6.312,-6.3122,-6.3149,-6.3265,-6.3317,-6.3403,-6.3435,-6.3437,-6.3574,-6.3555,-6.3527,-6.347,-6.3586,-6.3637,-6.3657,-6.3393,-6.3391,-6.339,-6.3389,0,0,-6.2795,-6.2897,-6.2922,-6.2965,-6.3044,-6.3112,-6.3206,-6.3292,-6.334,-6.3403,-6.3483,-6.3597,-6.3573,-6.362,-6.3627,-6.3691,-6.3812,-6.3655,-6.3657,-6.3683,-6.3966,-6.3987,-6.4011,-6.3802,-6.3806,-6.3809,-6.3961,0,-6.2938,-6.3108,-6.3126,-6.3277,-6.3359,-6.3348,-6.3431,-6.3488,-6.3515,-6.3588,-6.3617,-6.3699,-6.3659,-6.3688,-6.375,-6.3784,-6.3869,-6.3773,-6.3876,-6.3879,-6.386,-6.4037,-6.406,-6.42,-6.3981,-6.3984,-6.3986,0,-6.3129,-6.3201,-6.3361,-6.3431,-6.3466,-6.354,-6.362,-6.369,-6.3754,-6.377,-6.3824,-6.3823,-6.392,-6.3859,-6.3992,-6.3926,-6.3969,-6.3992,-6.3998,-6.4008,-6.394,-6.4053,-6.4245,-6.4267,-6.4018,-6.4015,-6.4013,0,-6.3234,-6.337,-6.3484,-6.3521,-6.3604,-6.3657,-6.3694,-6.3754,-6.3805,-6.3875,-6.3908,-6.3987,-6.4031,-6.4091,-6.4112,-6.4065,-6.4244,-6.4185,-6.4259,-6.4259,-6.4297,-6.4295,-6.45,-6.4324,-6.4323,-6.4323,-6.4323,0,-6.3393,-6.3491,-6.3533,-6.3603,-6.3713,-6.3732,-6.3839,-6.3873,-6.3928,-6.4003,-6.3998,-6.4068,-6.409,-6.4164,-6.418,-6.4288,-6.4308,-6.4322,-6.4326,-6.4324,-6.4322,-6.4352,-6.4343,-6.4329,-6.4327,-6.4326,-6.4325,0,-6.3528,-6.3561,-6.3684,-6.3754,-6.3774,-6.3852,-6.3911,-6.3978,-6.4005,-6.41,-6.4124,-6.4166,-6.4253,-6.4279,-6.4383,-6.4394,-6.4521,-6.4514,-6.45,-6.45,-6.4574,-6.4567,-6.4806,-6.4839,-6.464,-6.4642,-6.4644,0,-6.3628,-6.3704,-6.3783,-6.3835,-6.3874,-6.3957,-6.4009,-6.4031,-6.4085,-6.4165,-6.4222,-6.4309,-6.438,-6.4519,-6.4558,-6.4637,-6.4634,-6.4712,-6.4645,-6.4641,-6.4636,-6.4632,-6.464,-6.4725,-6.4727,-6.4728,-6.473,0,-6.3802,-6.3815,-6.3892,-6.3976,-6.404,-6.4106,-6.4169,-6.4211,-6.4241,-6.4303,-6.4393,-6.4448,-6.4556,-6.4642,-6.4723,-6.4759,-6.475,-6.4751,-6.4772,-6.4771,-6.476,-6.4768,-6.4535,-6.4745,-6.4743,-6.4742,-6.4741,-6.4741,-6.3924,-6.3992,-6.4059,-6.4145,-6.4196,-6.4256,-6.4323,-6.4359,-6.4435,-6.4526,-6.4534,-6.4631,-6.4694,-6.4802,-6.4843,-6.4919,-6.4896,-6.4926,-6.4935,-6.4942,-6.4949,-6.4748,-6.4933,-6.4933,-6.4932,-6.4932,-6.4932,0,-6.4099,-6.4142,-6.4221,-6.4312,-6.438,-6.4367,-6.4437,-6.4494,-6.4581,-6.4641,-6.4712,-6.4816,-6.49,-6.4945,-6.5029,-6.508,-6.5078,-6.5102,-6.5098,-6.5107,-6.4964,-6.4938,-6.5102,-6.5102,-6.5102,-6.5102,-6.5102,-6.5102,-6.4198,-6.4313,-6.4333,-6.4472,-6.4513,-6.4612,-6.4653,-6.4708,-6.4756,-6.4873,-6.4944,-6.4974,-6.5028,-6.5115,-6.5191,-6.5202,-6.5234,-6.526,-6.5269,-6.5134,-6.5117,-6.51,-6.5076,-6.5266,-6.5267,-6.5405,-6.5407,-6.5408]}]]